Regional Weather Roundup
Issued by NWS Burlington, VT

Home | Current Version | Previous Version | Text Only | Print | Product List | Glossary On
Versions: 1 2 3 4 5 6 7 8 9 10 11 12 13 14 15 16 17 18 19 20 21 22 23 24 25 26 27 28 29 30 31 32 33 34 35 36 37 38 39 40 41 42 43 44 45 46 47 48 49 50
000
ASUS41 KBTV 010330
RWRBTV
VERMONT REGIONAL WEATHER ROUNDUP
NATIONAL WEATHER SERVICE BURLINGTON VT
1100 PM EDT SAT APR 30 2016

NOTE: "FAIR" INDICATES FEW OR NO CLOUDS BELOW 12,000 FEET WITH NO
SIGNIFICANT WEATHER AND/OR OBSTRUCTIONS TO VISIBILITY.

* THESE REPORTS ARE NOT UNDER NWS QUALITY CONTROL AND/OR DO NOT
  REPORT WEATHER SUCH AS PRECIPITATION AND FOG.

VTZ001>019-010400-
_____VERMONT_____


CITY           SKY/WX    TMP DP  RH WIND       PRES   REMARKS
BURLINGTON     FAIR      49  25  39 N3        30.19F
MONTPELIER     FAIR      41  25  53 CALM      30.23F
MORRISVILLE    FAIR      36  29  75 CALM      30.21F
ST. JOHNSBURY*   N/A     45  27  49 MISG      30.19S
LYNDONVILLE*   FAIR      43  21  41 CALM      30.21S
MIDDLEBURY*    FAIR      43  27  52 CALM      30.18S
RUTLAND*       FAIR      45  27  49 SE3       30.20R
SPRINGFIELD    FAIR      46  34  62 CALM      30.17S
HIGHGATE*      FAIR      42  24  48 E3        30.20F
NEWPORT*       FAIR      41  26  55 CALM      30.21F
BENNINGTON     FAIR      50  39  66 S3        30.17F
MT. MANSFIELD*   N/A     37 N/A N/A CALM        N/A

_____LAKE CHAMPLAIN_____


CITY           SKY/WX    TMP DP  RH WIND       PRES   REMARKS
COLCHESTER RF*   N/A     46  32  57 NW8         N/A
DIAMOND ISL*     N/A     52  18  25 NW14        N/A

$$

NYZ007-026>031-035-052-083-087-010400-
_____NORTHERN NEW YORK_____


CITY           SKY/WX    TMP DP  RH WIND       PRES   REMARKS
PLATTSBURGH    CLOUDY    42  27  55 CALM      30.20F
SARANAC LAKE   CLOUDY    43  18  36 NE7       30.16F
MASSENA        PTCLDY    49  21  33 E7        30.19F
OGDENSBURG*    CLEAR     48  28  46 E5        30.16F
WATERTOWN      CLOUDY    48  29  47 E6        30.15S
FT DRUM        CLOUDY    52  23  32 E8        30.15S
ALBANY         MOCLDY    57  38  48 S5        30.18R
GLENS FALLS    CLOUDY    47  29  49 NE3       30.19S

$$
NHZ002-005-011-010400-
_____NEW HAMPSHIRE_____


CITY           SKY/WX    TMP DP  RH WIND       PRES   REMARKS
LEBANON        PTCLDY    46  33  60 NE7       30.17S
KEENE            N/A     52  36  54 S13       30.20
MT WASHINGTON  CLOUDY    30  14  51 SW14        N/A  WCI  20
PLYMOUTH       FAIR      44  33  66 CALM      30.21S
WHITEFIELD     CLOUDY    37  27  67 CALM      30.20R

$$

_____REGIONAL QUEBEC LOCATIONS_____


CITY           SKY/WX    TMP DP  RH WIND       PRES   REMARKS
MONTREAL       MOCLDY    50  14  23 NE7       30.20F
QUEBEC CITY    CLEAR     39  18  41 N7        30.24S
SHERBROOKE     CLEAR     37  23  56 E3        30.21S

_____REGIONAL ONTARIO LOCATIONS_____


CITY           SKY/WX    TMP DP  RH WIND       PRES   REMARKS
OTTAWA         MOCLDY    46  23  39 E7        30.19S

______KEY______
VSB  - VISIBILITY IN MILES
WCI  - WIND CHILL INDEX
HX   - HEAT INDEX
$$
NNNN




USA.gov is the U.S. government's official web portal to all federal, state and local government web resources and services.